Terminal Aerodrome Forecast
Issued by NWS

Home | Current Version | Previous Version | Text Only | Print | Product List | Glossary On
Versions: 1 2 3 4 5 6 7 8 9 10 11 12 13 14 15 16 17 18 19 20 21 22 23 24 25 26 27 28 29 30 31 32 33 34 35 36 37 38 39 40 41 42 43 44 45
000
FTUS44 KLIX 252326
TAFHDC
TAF
KHDC 252326Z 2600/2624 23005KT P6SM SCT250
     FM261100 VRB03KT 3SM BR SCT008
     FM261500 VRB03KT P6SM SCT250
     FM262200 22005KT P6SM BKN140=

USA.gov is the U.S. government's official web portal to all federal, state and local government web resources and services.